Flight Track Log - Related Links

Times and Time Zones

All times are in EDT time to prevent confusion due to time zone crossing. See the TRS719 flight status page for this flight to view local times or setup timezone preferences in your user account.

Time Position Orientation Groundspeed Altitude Reporting Facility
EDT Latitude Longitude Course Direction KTS MPH feet Rate Location/Type
07:38PM 30.8608 -107.0442 17° North 420 483 40,000  Level Albuquerque Center
07:39PM 30.9725 -107.0047 17° North 420 483 40,000  Level Albuquerque Center
07:40PM 31.0850 -106.9644 17° North 421 484 40,000  Level Albuquerque Center
07:41PM 31.1953 -106.9244 17° North 418 481 40,000  Level Albuquerque Center
07:42PM 31.3089 -106.8850 17° North 422 486 40,000  Level Albuquerque Center
07:43PM 31.4189 -106.9064 351° North 401 461 40,000  Level Albuquerque Center
07:44PM 31.5275 -106.9367 347° North 402 463 40,000  Level Albuquerque Center
07:45PM 31.6589 -106.9747 346° North 404 465 40,000  Level Albuquerque Center
07:46PM 31.7694 -107.0058 347° North 407 468 40,000  Level Albuquerque Center
07:47PM 31.8800 -107.0369 347° North 409 471 40,000  Level Albuquerque Center
07:48PM 31.9911 -107.0697 346° North 411 473 40,000  Level Albuquerque Center
07:49PM 32.1022 -107.1019 346° North 412 474 40,000  Level Albuquerque Center
07:50PM 32.2292 -107.1386 346° North 413 475 40,000  Level Albuquerque Center
07:51PM 32.3411 -107.1706 346° North 413 475 40,000  Level Albuquerque Center
07:52PM 32.4403 -107.2028 345° North 415 478 40,000  Level Albuquerque Center
07:53PM 32.5517 -107.2353 346° North 416 479 40,000  Level Albuquerque Center
07:54PM 32.6619 -107.2667 347° North 413 475 40,000  Level Albuquerque Center
07:55PM 32.7808 -107.3031 346° North 409 471 40,000  Level Albuquerque Center
07:56PM 32.8906 -107.3358 346° North 408 470 40,000 -49 Level Albuquerque Center
07:57PM 33.0008 -107.3658 347° North 407 468 39,900  Descending Albuquerque Center
07:58PM 33.1172 -107.3497 North 420 483 40,000 49 Climbing Albuquerque Center
07:59PM 33.2586 -107.3247 North 424 488 40,000  Level Albuquerque Center
08:00PM 33.3761 -107.3028 North 426 490 40,000  Level Albuquerque Center
08:01PM 33.4944 -107.2822 North 428 493 40,000  Level Albuquerque Center
08:02PM 33.6111 -107.2619 North 425 489 40,000  Level Albuquerque Center
08:04PM 33.7264 -107.2406 North 420 483 40,000  Level Albuquerque Center
08:05PM 33.8433 -107.2183 North 423 487 40,000  Level Albuquerque Center
08:06PM 33.9586 -107.1981 North 419 482 40,000  Level Albuquerque Center
08:07PM 34.0717 -107.1764 North 414 476 40,000  Level Albuquerque Center
08:08PM 34.2053 -107.1497 North 407 468 40,000 195 Level Albuquerque Center
08:09PM 34.3142 -107.1322 North 409 471 40,400 488 Climbing Albuquerque Center
08:10PM 34.4311 -107.1108 North 419 482 41,000 293 Climbing Albuquerque Center
08:11PM 34.5497 -107.0875 North 427 491 41,000  Level Albuquerque Center
08:12PM 34.6661 -107.0653 North 424 488 41,000  Level Albuquerque Center
08:13PM 34.7819 -107.0444 North 421 484 41,000  Level Albuquerque Center
08:14PM 34.9111 -107.0194 North 423 487 41,000  Level Albuquerque Center
08:15PM 35.0381 -106.9961 North 414 476 41,000  Level Albuquerque Center
08:16PM 35.1469 -106.9744 North 413 475 41,000  Level Albuquerque Center
08:17PM 35.2739 -106.9514 North 413 475 41,000  Level Albuquerque Center
08:18PM 35.3875 -106.9308 North 419 482 41,000  Level Albuquerque Center
08:19PM 35.5044 -106.9083 North 425 489 41,000  Level Albuquerque Center
08:20PM 35.6194 -106.8864 North 419 482 41,000  Level Albuquerque Center
08:21PM 35.7353 -106.8644 North 420 483 41,000 -146 Level Albuquerque Center
08:22PM 35.8639 -106.8392 North 419 482 40,700 -585 Descending Albuquerque Center
08:23PM 35.9664 -106.8203 North 418 481 39,800 -878 Descending Albuquerque Center
08:24PM 36.0758 -106.7989 North 406 467 38,900 -976 Descending Albuquerque Center
08:25PM 36.1958 -106.7761 North 388 447 37,800 -1,024 Descending Albuquerque Center
08:26PM 36.2967 -106.7561 North 383 441 36,800 -956 Descending Albuquerque Center
08:27PM 36.4014 -106.7353 North 396 456 36,000 -425 Descending Denver Center
08:28PM 36.5081 -106.7142 North 404 465 36,000  Level Denver Center
08:29PM 36.6147 -106.6914 10° North 406 467 36,000  Level Denver Center
08:30PM 36.7417 -106.6686 North 410 472 36,000  Level Denver Center
08:31PM 36.8506 -106.6447 10° North 412 474 36,000  Level Denver Center
08:32PM 36.9722 -106.6064 14° North 407 468 36,000  Level Denver Center
08:33PM 37.0775 -106.5767 13° North 403 464 36,000  Level Denver Center
08:34PM 37.1786 -106.5442 14° North 394 453 36,000  Level Denver Center
08:35PM 37.2994 -106.5058 14° North 400 460 36,000  Level Denver Center
08:36PM 37.4056 -106.4758 13° North 402 463 36,000  Level Denver Center
08:37PM 37.5281 -106.4375 14° North 404 465 36,000  Level Denver Center
08:38PM 37.6331 -106.4061 13° North 404 465 36,000  Level Denver Center
08:39PM 37.7372 -106.3722 14° North 401 461 36,000  Level Denver Center
08:40PM 37.8583 -106.3361 13° North 406 467 36,000  Level Denver Center
08:41PM 37.9658 -106.3031 14° North 411 473 36,000  Level Denver Center
08:42PM 38.0800 -106.2656 14° North 419 482 36,000 -148 Level Denver Center
08:43PM 38.1889 -106.2053 24° Northeast 420 483 35,700 -634 Descending Denver Center
08:44PM 38.2986 -106.1422 24° Northeast 420 483 34,700 -976 Descending Denver Center
08:45PM 38.4231 -106.0722 24° Northeast 435 501 33,700 -984 Descending Denver Center
08:46PM 38.5294 -106.0125 24° Northeast 435 501 32,700 -934 Descending Denver Center
08:47PM 38.6364 -105.9525 24° Northeast 442 509 31,800 -1,033 Descending Denver Center
08:48PM 38.7492 -105.8875 24° Northeast 439 505 30,600 -1,623 Descending Denver Center
08:49PM 38.8553 -105.8169 27° Northeast 426 490 28,500 -2,164 Descending Denver Center
08:50PM 38.9422 -105.7078 44° Northeast 427 491 26,200 -2,244 Descending Denver Center
08:51PM 39.0333 -105.5894 45° Northeast 418 481 23,900 -2,049 Descending Denver Center
08:52PM 39.1097 -105.4939 44° Northeast 404 465 22,000 -2,016 Descending Denver Center
08:53PM 39.1911 -105.3931 44° Northeast 396 456 19,800 -1,721 Descending Denver Center
08:54PM 39.2619 -105.2806 51° Northeast 377 434 18,500 -1,721 Descending Denver Center
08:55PM 39.2875 -105.1517 76° East 371 427 16,300 -1,918 Descending Denver Center
08:56PM 39.3114 -105.0183 77° East 375 432 14,600 -1,033 Descending Denver Center
08:58PM 39.3333 -104.9008 76° East 352 405 14,200 -738 Descending Denver Center
08:59PM 39.3594 -104.7919 73° East 299 344 13,100 -927 Descending Denver Center
09:00PM 39.4175 -104.7306 39° Northeast 268 308 12,300 -732 Descending Denver Center
09:01PM 39.4769 -104.6814 33° Northeast 254 292 11,600 -639 Descending Denver Center
09:02PM 39.5458 -104.6642 11° North 249 287 11,000 -934 Descending Denver Center
09:03PM 39.6114 -104.6642 360° North 237 273 9,700 -1,279 Descending Denver Center
09:04PM 39.6761 -104.6628 North 234 269 8,400 -1,131 Descending Denver Center
09:05PM 39.7308 -104.6622 360° North 206 237 7,400 -927 Descending Denver Center
09:06PM 39.7783 -104.6614 North 159 183 6,500 -829 Descending Denver Center
09:07PM 39.8150 -104.6608 North 133 153 5,700 -541 Descending Denver Center
09:08PM 39.8456 -104.6614 359° North 120 138 5,400 -295 Descending Denver Center
09:10PM 39.8500 -104.6667 North  Level FlightAware Approximate
09:17PM 39.8617 -104.6732 North  Level Estimated

Login

Don't have an account? Register now (free) for customized features, flight alerts, and more!